UA1ZBE-13 Weather Reports


Display with metric or nautical units.
time (UTC)temp
F
wind
direction
speed
MPH
gust
MPH
rain 1hr
in
rain 24hr
in
rain mn
in
humidity
%
barometer
mb
20260509021834 33 0.0 0.0 0.00 0.00 0.00 1004.0
20260509020834 33 0.0 0.0 0.00 0.00 0.00 1004.0
20260509015834 32 0.0 0.0 0.00 0.00 0.00 1004.0
20260509014833 32 0.0 0.0 0.00 0.00 0.00 1003.9
20260509013833 32 0.0 0.0 0.00 0.00 0.00 1003.8
20260509012833 32 0.0 0.0 0.00 0.00 0.00 1003.9
20260509011833 32 0.0 0.0 0.00 0.00 0.00 1003.7
20260509010832 32 0.0 0.0 0.00 0.00 0.00 1003.8
20260509005832 32 0.0 0.0 0.00 0.00 0.00 1003.7
20260509004832 32 0.0 0.0 0.00 0.00 0.00 1003.7
20260509003832 31 0.0 0.0 0.00 0.00 0.00 1003.5
20260509002831 31 0.0 0.0 0.00 0.00 0.00 1003.6
20260509001831 32 0.0 0.0 0.00 0.00 0.00 1003.5
20260509000831 32 0.0 0.0 0.00 0.00 0.00 1003.5
20260508235831 32 0.0 0.0 0.00 0.00 0.00 1003.4
20260508234830 32 0.0 0.0 0.00 0.00 0.00 1003.2
20260508233830 33 0.0 0.0 0.00 0.00 0.00 1003.3
20260508232830 33 0.0 0.0 0.00 0.00 0.00 1003.3
20260508231830 33 0.0 0.0 0.00 0.00 0.00 1003.3
20260508230829 33 0.0 0.0 0.00 0.00 0.00 1003.4
20260508225829 33 0.0 0.0 0.00 0.00 0.00 1003.3
20260508224829 33 0.0 0.0 0.00 0.00 0.00 1003.4
20260508223829 33 0.0 0.0 0.00 0.00 0.00 1003.4
20260508222829 33 0.0 0.0 0.00 0.00 0.00 1003.4
20260508221828 33 0.0 0.0 0.00 0.00 0.00 1003.2
20260508220828 33 0.0 0.0 0.00 0.00 0.00 1003.2
20260508215828 34 0.0 0.0 0.00 0.00 0.00 1003.3
20260508214828 34 0.0 0.0 0.00 0.00 0.00 1003.3
20260508213827 35 0.0 0.0 0.00 0.00 0.00 1003.2
20260508212827 35 0.0 0.0 0.00 0.00 0.00 1003.1
20260508211827 35 0.0 0.0 0.00 0.00 0.00 1003.2
20260508210827 36 0.0 0.0 0.00 0.00 0.00 1003.1
20260508205826 36 0.0 0.0 0.00 0.00 0.00 1003.1
20260508204826 36 0.0 0.0 0.00 0.00 0.00 1002.9
20260508203826 37 0.0 0.0 0.00 0.00 0.00 1002.9
20260508202826 37 0.0 0.0 0.00 0.00 0.00 1002.8
20260508201825 38 0.0 0.0 0.00 0.00 0.00 1002.8
20260508200825 38 0.0 0.0 0.00 0.00 0.00 1002.8
20260508195825 39 0.0 0.0 0.00 0.00 0.00 1002.8
20260508194825 40 0.0 0.0 0.00 0.00 0.00 1002.6
20260508193825 40 0.0 0.0 0.00 0.00 0.00 1002.6
20260508192824 41 0.0 0.0 0.00 0.00 0.00 1002.6
20260508191824 42 0.0 0.0 0.00 0.00 0.00 1002.6
20260508190824 42 0.0 0.0 0.00 0.00 0.00 1002.5
20260508185824 43 0.0 0.0 0.00 0.00 0.00 1002.4
20260508184824 43 0.0 0.0 0.00 0.00 0.00 1002.4
20260508183823 44 0.0 0.0 0.00 0.00 0.00 1002.4
20260508182823 45 0.0 0.0 0.00 0.00 0.00 1002.4
20260508181823 46 0.0 0.0 0.00 0.00 0.00 1002.5
20260508180823 47 0.0 0.0 0.00 0.00 0.00 1002.6
20260508175822 49 0.0 0.0 0.00 0.00 0.00 1002.6
20260508174822 51 0.0 0.0 0.00 0.00 0.00 1002.5
20260508173822 52 0.0 0.0 0.00 0.00 0.00 1002.5
20260508172822 49 0.0 0.0 0.00 0.00 0.00 1002.5
20260508171821 50 0.0 0.0 0.00 0.00 0.00 1002.5
20260508170821 52 0.0 0.0 0.00 0.00 0.00 1002.5
20260508165821 55 0.0 0.0 0.00 0.00 0.00 1002.5
20260508164821 56 0.0 0.0 0.00 0.00 0.00 1002.6
20260508163821 59 0.0 0.0 0.00 0.00 0.00 1002.5
20260508162820 57 0.0 0.0 0.00 0.00 0.00 1002.5
20260508161820 56 0.0 0.0 0.00 0.00 0.00 1002.5
20260508160820 60 0.0 0.0 0.00 0.00 0.00 1002.6
20260508155820 62 0.0 0.0 0.00 0.00 0.00 1002.4
20260508154819 64 0.0 0.0 0.00 0.00 0.00 1002.3
20260508153819 60 0.0 0.0 0.00 0.00 0.00 1002.3
20260508152819 62 0.0 0.0 0.00 0.00 0.00 1002.3
20260508151819 72 0.0 0.0 0.00 0.00 0.00 1002.3
20260508150818 70 0.0 0.0 0.00 0.00 0.00 1002.2
20260508145818 69 0.0 0.0 0.00 0.00 0.00 1002.1
20260508144818 53 0.0 0.0 0.00 0.00 0.00 1001.9
20260508143818 55 0.0 0.0 0.00 0.00 0.00 1002.0
20260508142817 57 0.0 0.0 0.00 0.00 0.00 1002.0
20260508141817 61 0.0 0.0 0.00 0.00 0.00 1001.9
20260508140817 55 0.0 0.0 0.00 0.00 0.00 1001.8
20260508135817 62 0.0 0.0 0.00 0.00 0.00 1001.8
20260508134816 58 0.0 0.0 0.00 0.00 0.00 1001.7
20260508133816 56 0.0 0.0 0.00 0.00 0.00 1001.6
20260508132816 54 0.0 0.0 0.00 0.00 0.00 1001.5
20260508131816 52 0.0 0.0 0.00 0.00 0.00 1001.4
20260508130816 50 0.0 0.0 0.00 0.00 0.00 1001.2
20260508125815 50 0.0 0.0 0.00 0.00 0.00 1001.2
20260508124815 49 0.0 0.0 0.00 0.00 0.00 1001.2
20260508123815 49 0.0 0.0 0.00 0.00 0.00 1001.1
20260508122815 49 0.0 0.0 0.00 0.00 0.00 1001.1
20260508121814 49 0.0 0.0 0.00 0.00 0.00 1001.1
20260508120814 51 0.0 0.0 0.00 0.00 0.00 1001.1
20260508115814 50 0.0 0.0 0.00 0.00 0.00 1000.9
20260508114814 50 0.0 0.0 0.00 0.00 0.00 1001.0
20260508113814 51 0.0 0.0 0.00 0.00 0.00 1001.1
20260508112813 50 0.0 0.0 0.00 0.00 0.00 1001.2
20260508111813 52 0.0 0.0 0.00 0.00 0.00 1001.0
20260508110813 52 0.0 0.0 0.00 0.00 0.00 1000.9
20260508105813 50 0.0 0.0 0.00 0.00 0.00 1000.8
20260508104812 50 0.0 0.0 0.00 0.00 0.00 1000.8
20260508103812 50 0.0 0.0 0.00 0.00 0.00 1000.6
20260508102812 50 0.0 0.0 0.00 0.00 0.00 1000.6
20260508101812 49 0.0 0.0 0.00 0.00 0.00 1000.2
20260508100811 46 0.0 0.0 0.00 0.00 0.00 1000.0
20260508095811 46 0.0 0.0 0.00 0.00 0.00 1000.0
20260508094811 47 0.0 0.0 0.00 0.00 0.00 999.9
20260508093811 47 0.0 0.0 0.00 0.00 0.00 999.9
20260508092811 46 0.0 0.0 0.00 0.00 0.00 999.7
20260508091810 45 0.0 0.0 0.00 0.00 0.00 999.4
20260508090810 44 0.0 0.0 0.00 0.00 0.00 999.3
20260508085810 43 0.0 0.0 0.00 0.00 0.00 999.3
20260508084810 44 0.0 0.0 0.00 0.00 0.00 999.3
20260508083810 46 0.0 0.0 0.00 0.00 0.00 999.1
20260508082809 46 0.0 0.0 0.00 0.00 0.00 999.0
20260508081809 45 0.0 0.0 0.00 0.00 0.00 998.8
20260508080809 44 0.0 0.0 0.00 0.00 0.00 998.8
20260508075809 43 0.0 0.0 0.00 0.00 0.00 998.7
20260508074808 44 0.0 0.0 0.00 0.00 0.00 998.5
20260508073808 43 0.0 0.0 0.00 0.00 0.00 998.6
20260508072808 43 0.0 0.0 0.00 0.00 0.00 998.3
20260508071808 42 0.0 0.0 0.00 0.00 0.00 998.3
20260508070807 41 0.0 0.0 0.00 0.00 0.00 998.2
20260508065807 41 0.0 0.0 0.00 0.00 0.00 998.0
20260508064807 40 0.0 0.0 0.00 0.00 0.00 998.0
20260508063807 40 0.0 0.0 0.00 0.00 0.00 997.9
20260508062807 40 0.0 0.0 0.00 0.00 0.00 997.8
20260508061806 39 0.0 0.0 0.00 0.00 0.00 997.7
20260508060806 39 0.0 0.0 0.00 0.00 0.00 997.7
20260508055806 39 0.0 0.0 0.00 0.00 0.00 997.6
20260508054806 38 0.0 0.0 0.00 0.00 0.00 997.5
20260508053806 38 0.0 0.0 0.00 0.00 0.00 997.5
20260508052805 38 0.0 0.0 0.00 0.00 0.00 997.4
20260508051805 37 0.0 0.0 0.00 0.00 0.00 997.3
20260508050805 37 0.0 0.0 0.00 0.00 0.00 997.1
20260508045805 37 0.0 0.0 0.00 0.00 0.00 997.1
20260508044805 37 0.0 0.0 0.00 0.00 0.00 997.1
20260508043804 37 0.0 0.0 0.00 0.00 0.00 996.9
20260508042804 37 0.0 0.0 0.00 0.00 0.00 996.8
20260508041804 36 0.0 0.0 0.00 0.00 0.00 996.7
20260508040804 36 0.0 0.0 0.00 0.00 0.00 996.8
20260508035803 36 0.0 0.0 0.00 0.00 0.00 996.7
20260508034803 36 0.0 0.0 0.00 0.00 0.00 996.6
20260508033803 35 0.0 0.0 0.00 0.00 0.00 996.6
20260508032803 35 0.0 0.0 0.00 0.00 0.00 996.5
20260508031802 35 0.0 0.0 0.00 0.00 0.00 996.4
20260508030802 35 0.0 0.0 0.00 0.00 0.00 996.3
20260508025802 35 0.0 0.0 0.00 0.00 0.00 996.2
20260508024802 35 0.0 0.0 0.00 0.00 0.00 996.2
20260508023801 35 0.0 0.0 0.00 0.00 0.00 996.2
20260508022801 34 0.0 0.0 0.00 0.00 0.00 996.0